Overview Statistics Trail Chart Weather Telemetry Raw packets
 

This is the latest recevied weather packets stored in our database for station/object KB4RFE. If no packets are shown the sender has not sent any weather packets the latest 10 day(s).

<< 94 95 96 97 98 99 100 >>
Time Temp. Humidity Pressure Rain* Wind** Luminosity Snow
1787926371 27.22° C 85% 1020.6 hPa 0 mm - 275 W/m² -
1787926067 27.22° C 85% 1020.6 hPa 0 mm - 255 W/m² -
1787925766 27.22° C 84% 1020.6 hPa 0 mm - 247 W/m² -
1787925465 27.22° C 86% 1020.5 hPa 0 mm - 236 W/m² -
1787925160 27.22° C 87% 1020.5 hPa 0 mm - 243 W/m² -
1787924859 26.67° C 87% 1020.5 hPa 0 mm - 258 W/m² -
1787924554 26.67° C 86% 1020.3 hPa 0 mm - 268 W/m² -
1787924249 26.67° C 88% 1020.2 hPa 0 mm - 290 W/m² -
1787923944 26.11° C 89% 1020.2 hPa 0 mm - 507 W/m² -
1787923644 25.56° C 91% 1020.2 hPa 0 mm - 357 W/m² -
1787923339 25.56° C 93% 1020.2 hPa 0 mm - 165 W/m² -
1787923034 25° C 94% 1020 hPa 0 mm - 195 W/m² -
1787922729 25° C 94% 1020.1 hPa 0 mm - 91 W/m² -
1787922428 24.44° C 95% 1020 hPa 0 mm - 75 W/m² -
1787922127 24.44° C 96% 1019.8 hPa 0 mm - 67 W/m² -
1787921825 24.44° C 97% 1019.8 hPa 0 mm - 75 W/m² -
1787921521 24.44° C 97% 1019.7 hPa 0 mm - 79 W/m² -
1787921220 24.44° C 98% 1019.6 hPa 0 mm - 72 W/m² -
1787920915 24.44° C 98% 1019.9 hPa 0 mm - 66 W/m² -
1787920611 23.89° C 98% 1019.5 hPa 0 mm - 63 W/m² -
1787920305 23.89° C 99% 1019.4 hPa 0 mm - 55 W/m² -
1787920004 23.89° C 99% 1019.6 hPa 0 mm - 54 W/m² -
1787919703 23.89° C 99% 1019.6 hPa 0 mm - 54 W/m² -
1787919402 23.89° C 99% 1019.6 hPa 0 mm - 58 W/m² -
1787919099 23.89° C 99% 1019.6 hPa 0 mm - 59 W/m² -

* Rain latest hour (hover to see other rain measurements)
** Current wind speed in m/s (hover to see current wind gust speed)